Patterson, LA

2:36 AM CST on November 21, 2019 (GMT -0600)
Williams Memorial

Weather History for KPTN - September, 2019

Change the Weather History Date:

Wednesday, September 4, 2019

  Actual Average Record
Temperature  
Mean Temperature 84 °F -  
Max Temperature 93 °F 85 °F 100 °F (2000)
Min Temperature 75 °F 71 °F 69 °F (2006)
Cooling Degree Days 19    
Growing Degree Days 34 (Base 50)    
Moisture  
Dew Point 75 °F    
Average Humidity 83    
Maximum Humidity 100    
Minimum Humidity 47    
Precipitation  
Precipitation 0.00 in - - ()
Sea Level Pressure  
Sea Level Pressure 29.99 in    
Wind  
Wind Speed 2 mph (NE)    
Max Wind Speed 10 mph    
Max Gust Speed -    
Visibility 9 miles    
Events      
Averages and records for this station are not official NWS values.
T = Trace of Precipitation, MM = Missing Value Source: NWS Daily Summary

Daily Weather History Graph

Daily Weather History Graph

Search for Another Location

Airport or City:

Astronomy

Sep. 04, 2019 Rise Set
Actual Time 6:44 AM CDT 7:24 PM CDT
Civil Twilight 6:19 AM CDT 7:48 PM CDT
Nautical Twilight 5:51 AM CDT 8:16 PM CDT
Astronomical Twilight 5:22 AM CDT 8:45 PM CDT
Moon 12:19 PM CDT (9/4) 11:26 PM CDT (9/4)
Length of Visible Light 13h 28m
Length of Day
12h 40m
Waxing Crescent, 35% of the Moon is Illuminated
Sep 4
Waxing Crescent
Sep 5
First Quarter
Sep 13
Full
Sep 21
Last Quarter
Sep 28
New

Hourly Weather History & Observations

Time (CDT) Temp. Heat Index Dew Point Humidity Pressure Visibility Wind Dir Wind Speed Gust Speed Precip Events Conditions
12:56 AM 75.9 °F - 75.0 °F 97% 29.95 in 10.0 mi Calm Calm - N/A   Clear
1:56 AM 75.9 °F - 75.0 °F 97% 29.95 in 10.0 mi Calm Calm - N/A   Clear
2:56 AM 75.9 °F - 75.0 °F 97% 29.94 in 10.0 mi Calm Calm - N/A   Clear
3:56 AM 75.9 °F - 75.0 °F 97% 29.95 in 4.0 mi Calm Calm - N/A   Clear
3:59 AM 75.2 °F - 75.2 °F 100% 29.94 in 1.5 mi Calm Calm - N/A   Clear
4:26 AM 75.2 °F - 75.2 °F 100% 29.94 in 1.5 mi Calm Calm - N/A   Clear
4:54 AM 75.2 °F - 75.2 °F 100% 29.95 in 3.0 mi Calm Calm - N/A   Clear
4:56 AM 75.0 °F - 75.0 °F 100% 29.95 in 5.0 mi Calm Calm - N/A   Clear
5:56 AM 75.0 °F - 75.0 °F 100% 29.97 in 9.0 mi Calm Calm - N/A   Clear
6:56 AM 75.0 °F - 75.0 °F 100% 29.99 in 10.0 mi Calm Calm - N/A   Clear
7:56 AM 78.1 °F - 77.0 °F 96% 30.01 in 10.0 mi ENE 4.6 mph - N/A   Clear
8:56 AM 82.9 °F 92.8 °F 78.1 °F 85% 30.02 in 10.0 mi NE 6.9 mph - N/A   Clear
9:56 AM 88.0 °F 98.5 °F 75.9 °F 67% 30.03 in 10.0 mi ENE 8.1 mph - N/A   Clear
10:56 AM 90.0 °F 100.2 °F 75.0 °F 61% 30.03 in 10.0 mi NE 8.1 mph - N/A   Clear
11:56 AM 91.0 °F 101.6 °F 75.0 °F 59% 30.03 in 10.0 mi East 6.9 mph - N/A   Scattered Clouds
12:56 PM 91.0 °F 101.6 °F 75.0 °F 59% 30.02 in 10.0 mi NE 6.9 mph - N/A   Partly Cloudy
2:56 PM 93.0 °F 103.2 °F 73.9 °F 54% 29.98 in 10.0 mi NNE 10.4 mph - N/A   Mostly Cloudy
3:56 PM 93.9 °F 104.0 °F 73.9 °F 52% 29.97 in 10.0 mi NE 9.2 mph - N/A   Partly Cloudy
4:56 PM 93.9 °F 100.8 °F 71.1 °F 47% 29.97 in 10.0 mi NE 9.2 mph - N/A   Clear
5:56 PM 91.9 °F 98.4 °F 71.1 °F 50% 29.97 in 10.0 mi ENE 8.1 mph - N/A   Clear
6:56 PM 88.0 °F 101.3 °F 78.1 °F 72% 29.98 in 10.0 mi Calm Calm - N/A   Clear
7:56 PM 81.0 °F 87.9 °F 77.0 °F 88% 29.99 in 10.0 mi Calm Calm - N/A   Clear
8:56 PM 81.0 °F 87.9 °F 77.0 °F 88% 30.01 in 10.0 mi Calm Calm - 0.00 in   Clear
9:56 PM 80.1 °F 86.4 °F 78.1 °F 94% 30.03 in 10.0 mi Calm Calm - N/A   Clear
10:56 PM 79.0 °F - 78.1 °F 97% 30.03 in 10.0 mi Calm Calm - N/A   Clear
11:56 PM 79.0 °F - 77.0 °F 94% 30.02 in 10.0 mi Calm Calm - N/A   Clear